Flag for Germany Weather past 2 weeks in Strausberg, Brandenburg, Germany

Now
43 °F

Passing clouds.


Feels Like: 38 °F
Forecast: 34 / 55 °F
Wind: 8 mph from North

Location: Berlin-Schoenefeld

Current Time: Apr 18, 2015 at 9:45:06 AM

Latest Report: Apr 18, 2015 at 9:20 AM


Visibility: N/A

Pressure: 30.27 "Hg

Humidity: 71%

Dew point: 34 °F

Location of StrausbergLocation

Historic Weather in Strausberg — Graph

°F

Strausberg temperature yesterday

Maximum temperature yesterday: 52 °F (at 4:20 PM)
Minimum temperature yesterday: 36 °F (at 2:50 AM)
Average temperature yesterday: 44 °F

Past Weeks' High & Low Weather Summary

 TemperatureHumidityPressure
High72 °F (Apr 11, 2:50 PM)100% (Apr 4, 4:50 AM)30.54 "Hg (Apr 4, 4:50 AM)
Low25 °F (Apr 5, 6:20 AM)25% (Apr 5, 3:50 PM)29.83 "Hg (Apr 15, 5:20 PM)
Average47 °F65%30.18 "Hg
* Reported Apr 3 8:20 AM — Apr 18 8:20 AM, Strausberg, Weather by CustomWeather, © 2015

Note: Actual official high and low records may vary slightly from our data, if they occured in-between our weather recording intervals... More about our weather records

Advertising

Strausberg weather history for previous 24 hours

 ConditionsComfort  
Time TempWeatherWind HumidityBarometerVisibility
8:20 AM
Sat, Apr 18
41 °FSunny.8 mph81%30.24 "Hg10 mi
7:50 AM39 °FSunny.6 mph87%30.24 "Hg10 mi
7:20 AM37 °FSunny.5 mph93%30.24 "Hg10 mi
6:50 AM36 °FClear.5 mph93%30.24 "Hg10 mi
6:20 AM36 °FClear.6 mph93%30.21 "Hg10 mi
5:50 AM36 °FClear.7 mph87%30.21 "Hg10 mi
5:20 AM36 °FClear.6 mph93%30.21 "Hg10 mi
4:50 AM36 °FClear.7 mph93%30.18 "Hg10 mi
4:20 AM37 °FClear.7 mph87%30.18 "Hg10 mi
3:50 AM37 °FClear.7 mph87%30.18 "Hg10 mi
3:20 AM37 °FClear.9 mph87%30.18 "Hg10 mi
2:50 AM39 °FClear.10 mph81%30.15 "Hg10 mi
2:20 AM39 °FClear.12 mph81%30.15 "Hg10 mi
1:50 AM41 °FPassing clouds.14 mph76%30.15 "HgN/A
1:20 AM41 °FPassing clouds.15 mph81%30.12 "HgN/A
12:50 AM43 °FPassing clouds.15 mph76%30.12 "HgN/A
12:20 AM43 °FPassing clouds.12 mph76%30.09 "HgN/A
11:50 PM
Fri, Apr 17
43 °FPassing clouds.12 mph76%30.09 "HgN/A
11:20 PM45 °FPassing clouds.12 mph71%30.07 "HgN/A
10:50 PM45 °FPassing clouds.10 mph71%30.07 "HgN/A
10:20 PM45 °FClear.8 mph71%30.07 "Hg10 mi
9:50 PM45 °FClear.8 mph66%30.07 "Hg10 mi
9:20 PM45 °FPartly cloudy.10 mph66%30.04 "HgN/A
8:50 PM46 °FSprinkles. Partly sunny.15 mph62%30.04 "HgN/A
8:20 PM46 °FPartly sunny.16 mph62%30.01 "HgN/A
7:50 PM48 °FPartly sunny.17 mph58%30.01 "HgN/A
7:20 PM52 °FPartly sunny.13 mph38%29.98 "HgN/A
6:50 PM52 °FScattered clouds.12 mph41%29.98 "HgN/A
6:20 PM52 °FSunny.12 mph41%29.95 "Hg10 mi
5:50 PM52 °FSunny.13 mph44%29.95 "Hg10 mi
5:20 PM52 °FSunny.10 mph44%29.95 "Hg10 mi
4:50 PM52 °FSunny.13 mph44%29.95 "Hg10 mi
4:20 PM52 °FSunny.12 mph47%29.95 "Hg10 mi
3:50 PM50 °FScattered clouds.13 mph50%29.98 "HgN/A
3:20 PM50 °FPartly sunny.14 mph47%29.95 "HgN/A
2:50 PM50 °FPartly sunny.13 mph54%29.95 "HgN/A
2:20 PM50 °FBroken clouds.13 mph54%29.95 "HgN/A
1:50 PM48 °FPartly sunny.10 mph62%29.98 "HgN/A
1:20 PM48 °FPartly sunny.10 mph66%29.98 "HgN/A
12:50 PM46 °FPartly sunny.10 mph66%29.98 "HgN/A
12:20 PM46 °FPartly sunny.13 mph62%29.98 "HgN/A
11:50 AM46 °FBroken clouds.13 mph66%29.98 "HgN/A
11:20 AM46 °FPartly sunny.13 mph66%29.95 "HgN/A
10:50 AM46 °FBroken clouds.12 mph66%29.95 "HgN/A
10:20 AM45 °FPartly sunny.9 mph76%29.95 "HgN/A
9:50 AM45 °FPartly sunny.9 mph76%29.95 "HgN/A
9:20 AM43 °FPartly sunny.8 mph81%29.95 "HgN/A
Weather by CustomWeather, © 2015

See weather overviewHow to use our weather pages